TimeCDT,TemperatureF,Dew PointF,Humidity,Sea Level PressureIn,VisibilityMPH,Wind Direction,Wind SpeedMPH,Gust SpeedMPH,PrecipitationIn,Events,Conditions,WindDirDegrees,DateUTC
12:09 AM,37.4,30.2,75,30.18,10.0,SE,15.0,-,N/A,,Clear,140,2012-10-29 05:09:00
12:29 AM,37.4,30.2,75,30.18,10.0,SSE,13.8,18.4,N/A,,Clear,150,2012-10-29 05:29:00
12:49 AM,37.4,30.2,75,30.17,10.0,SE,13.8,-,N/A,,Clear,140,2012-10-29 05:49:00
1:09 AM,37.4,30.2,75,30.19,10.0,SE,12.7,-,N/A,,Clear,140,2012-10-29 06:09:00
1:29 AM,35.6,30.2,81,30.19,10.0,SE,12.7,-,N/A,,Mostly Cloudy,140,2012-10-29 06:29:00
1:49 AM,37.4,30.2,75,30.18,10.0,SE,12.7,-,N/A,,Overcast,140,2012-10-29 06:49:00
2:29 AM,37.4,30.2,75,30.18,10.0,SE,15.0,-,N/A,,Scattered Clouds,140,2012-10-29 07:29:00
2:49 AM,37.4,30.2,75,30.18,10.0,SE,11.5,-,N/A,,Scattered Clouds,140,2012-10-29 07:49:00
3:09 AM,37.4,30.2,75,30.18,10.0,SE,12.7,-,N/A,,Overcast,140,2012-10-29 08:09:00
3:29 AM,37.4,30.2,75,30.17,10.0,SE,12.7,-,N/A,,Overcast,140,2012-10-29 08:29:00
3:49 AM,37.4,28.4,70,30.17,10.0,SE,15.0,-,N/A,,Overcast,140,2012-10-29 08:49:00
4:29 AM,37.4,28.4,70,30.16,10.0,SE,16.1,-,N/A,,Mostly Cloudy,140,2012-10-29 09:29:00
4:49 AM,37.4,28.4,70,30.15,10.0,SE,15.0,-,N/A,,Mostly Cloudy,140,2012-10-29 09:49:00
5:09 AM,37.4,28.4,70,30.15,10.0,SE,16.1,19.6,N/A,,Mostly Cloudy,130,2012-10-29 10:09:00
5:29 AM,37.4,28.4,70,30.15,10.0,SE,18.4,21.9,N/A,,Overcast,140,2012-10-29 10:29:00
5:49 AM,37.4,28.4,70,30.16,10.0,SE,17.3,-,N/A,,Overcast,140,2012-10-29 10:49:00
6:09 AM,37.4,28.4,70,30.16,10.0,SE,16.1,-,N/A,,Overcast,140,2012-10-29 11:09:00
6:29 AM,37.4,28.4,70,30.15,10.0,SE,16.1,-,N/A,,Overcast,140,2012-10-29 11:29:00
6:49 AM,37.4,28.4,70,30.15,10.0,SE,15.0,-,N/A,,Overcast,140,2012-10-29 11:49:00
7:09 AM,37.4,26.6,65,30.15,10.0,SE,16.1,-,N/A,,Mostly Cloudy,130,2012-10-29 12:09:00
7:29 AM,37.4,26.6,65,30.16,10.0,SE,15.0,-,N/A,,Mostly Cloudy,130,2012-10-29 12:29:00
7:49 AM,37.4,26.6,65,30.16,10.0,SE,13.8,-,N/A,,Scattered Clouds,140,2012-10-29 12:49:00
8:09 AM,37.4,26.6,65,30.16,10.0,SE,15.0,-,N/A,,Mostly Cloudy,140,2012-10-29 13:09:00
8:29 AM,37.4,26.6,65,30.17,10.0,SE,13.8,-,N/A,,Mostly Cloudy,130,2012-10-29 13:29:00
8:49 AM,37.4,28.4,70,30.17,10.0,SE,12.7,-,N/A,,Scattered Clouds,140,2012-10-29 13:49:00
9:09 AM,37.4,26.6,65,30.16,10.0,SE,17.3,-,N/A,,Mostly Cloudy,140,2012-10-29 14:09:00
9:29 AM,39.2,28.4,65,30.17,10.0,SE,15.0,-,N/A,,Mostly Cloudy,140,2012-10-29 14:29:00
9:49 AM,39.2,28.4,65,30.17,10.0,SE,18.4,21.9,N/A,,Mostly Cloudy,140,2012-10-29 14:49:00
10:09 AM,39.2,28.4,65,30.17,10.0,SE,15.0,-,N/A,,Mostly Cloudy,140,2012-10-29 15:09:00
10:29 AM,39.2,28.4,65,30.17,10.0,SE,19.6,-,N/A,,Mostly Cloudy,140,2012-10-29 15:29:00
10:49 AM,41.0,28.4,61,30.18,10.0,SSE,15.0,24.2,N/A,,Mostly Cloudy,150,2012-10-29 15:49:00
11:09 AM,42.8,28.4,57,30.18,10.0,SSE,18.4,21.9,N/A,,Mostly Cloudy,150,2012-10-29 16:09:00
11:29 AM,42.8,28.4,57,30.18,10.0,SSE,17.3,-,N/A,,Scattered Clouds,150,2012-10-29 16:29:00
11:49 AM,44.6,30.2,57,30.18,10.0,SSE,19.6,-,N/A,,Scattered Clouds,150,2012-10-29 16:49:00
12:29 PM,44.6,30.2,57,30.17,10.0,SE,19.6,-,N/A,,Scattered Clouds,140,2012-10-29 17:29:00
12:49 PM,48.2,30.2,50,30.17,10.0,SE,21.9,25.3,N/A,,Scattered Clouds,140,2012-10-29 17:49:00
1:09 PM,48.2,30.2,50,30.16,10.0,SSE,18.4,-,N/A,,Scattered Clouds,150,2012-10-29 18:09:00
1:49 PM,50.0,30.2,47,30.15,10.0,SSE,17.3,-,N/A,,Mostly Cloudy,150,2012-10-29 18:49:00
2:09 PM,48.2,30.2,50,30.15,10.0,SE,18.4,-,N/A,,Mostly Cloudy,140,2012-10-29 19:09:00
2:29 PM,48.2,30.2,50,30.15,10.0,SSE,17.3,-,N/A,,Scattered Clouds,150,2012-10-29 19:29:00
2:49 PM,48.2,30.2,50,30.14,10.0,SE,19.6,24.2,N/A,,Scattered Clouds,140,2012-10-29 19:49:00
3:09 PM,50.0,30.2,47,30.14,10.0,ESE,18.4,26.5,N/A,,Scattered Clouds,120,2012-10-29 20:09:00
3:29 PM,51.8,30.2,44,30.13,10.0,SE,19.6,27.6,N/A,,Clear,130,2012-10-29 20:29:00
3:49 PM,51.8,30.2,44,30.13,10.0,SE,21.9,26.5,N/A,,Clear,130,2012-10-29 20:49:00
4:09 PM,50.0,30.2,47,30.13,10.0,SE,20.7,-,N/A,,Clear,140,2012-10-29 21:09:00
4:29 PM,50.0,30.2,47,30.13,10.0,SE,23.0,27.6,N/A,,Clear,130,2012-10-29 21:29:00
4:49 PM,50.0,30.2,47,30.13,10.0,SE,19.6,-,N/A,,Clear,130,2012-10-29 21:49:00
5:09 PM,48.2,30.2,50,30.14,10.0,ESE,17.3,24.2,N/A,,Clear,120,2012-10-29 22:09:00
5:29 PM,48.2,30.2,50,30.14,10.0,ESE,17.3,-,N/A,,Clear,120,2012-10-29 22:29:00
5:49 PM,46.4,30.2,53,30.14,10.0,ESE,17.3,23.0,N/A,,Clear,120,2012-10-29 22:49:00
6:09 PM,44.6,30.2,57,30.15,10.0,ESE,16.1,-,N/A,,Clear,120,2012-10-29 23:09:00
6:29 PM,44.6,30.2,57,30.15,10.0,ESE,16.1,21.9,N/A,,Clear,120,2012-10-29 23:29:00
6:49 PM,42.8,30.2,61,30.15,10.0,ESE,16.1,-,N/A,,Clear,120,2012-10-29 23:49:00
7:09 PM,42.8,30.2,61,30.16,10.0,ESE,15.0,-,N/A,,Clear,120,2012-10-30 00:09:00
7:29 PM,42.8,28.4,57,30.16,10.0,ESE,15.0,-,N/A,,Clear,120,2012-10-30 00:29:00
7:49 PM,41.0,28.4,61,30.16,10.0,SE,15.0,-,N/A,,Clear,130,2012-10-30 00:49:00
8:09 PM,41.0,28.4,61,30.16,10.0,ESE,15.0,20.7,N/A,,Clear,120,2012-10-30 01:09:00
8:29 PM,39.2,30.2,70,30.16,10.0,SE,16.1,-,N/A,,Clear,130,2012-10-30 01:29:00
8:49 PM,39.2,28.4,65,30.16,10.0,SE,15.0,-,N/A,,Clear,130,2012-10-30 01:49:00
9:09 PM,39.2,28.4,65,30.16,10.0,SE,15.0,-,N/A,,Clear,130,2012-10-30 02:09:00
9:29 PM,37.4,28.4,70,30.16,10.0,ESE,16.1,-,N/A,,Clear,120,2012-10-30 02:29:00
9:49 PM,37.4,28.4,70,30.17,10.0,SE,13.8,-,N/A,,Clear,130,2012-10-30 02:49:00
10:09 PM,37.4,28.4,70,30.17,10.0,SE,15.0,-,N/A,,Clear,130,2012-10-30 03:09:00
10:29 PM,37.4,28.4,70,30.16,10.0,SE,15.0,-,N/A,,Clear,130,2012-10-30 03:29:00
10:49 PM,37.4,28.4,70,30.16,10.0,SE,13.8,-,N/A,,Clear,130,2012-10-30 03:49:00
11:09 PM,37.4,28.4,70,30.16,10.0,SE,13.8,-,N/A,,Clear,130,2012-10-30 04:09:00
11:29 PM,35.6,28.4,75,30.17,10.0,SE,13.8,-,N/A,,Clear,130,2012-10-30 04:29:00
11:49 PM,35.6,28.4,75,30.17,10.0,ESE,11.5,-,N/A,,Clear,120,2012-10-30 04:49:00